TimeICT,TemperatureF,Dew PointF,Humidity,Sea Level PressureIn,VisibilityMPH,Wind Direction,Wind SpeedMPH,Gust SpeedMPH,PrecipitationIn,Events,Conditions,WindDirDegrees,DateUTC
12:00 AM,77.0,75.2,94,29.83,6.2,SE,3.5,-,N/A,,Mostly Cloudy,140,2013-04-29 17:00:00
12:30 AM,77.0,75.2,94,29.80,6.2,SSE,3.5,-,N/A,,Mostly Cloudy,160,2013-04-29 17:30:00
1:00 AM,77,74,87,29.81,6,SSW,4.6,,,,Scattered Clouds,200,2013-04-29 18:00:00
1:00 AM,77.0,73.4,89,29.80,6.2,SSW,4.6,-,N/A,,Mostly Cloudy,200,2013-04-29 18:00:00
1:30 AM,77.0,73.4,89,29.80,6.2,SW,4.6,-,N/A,,Mostly Cloudy,220,2013-04-29 18:30:00
2:00 AM,77.0,73.4,89,29.77,6.2,SW,2.3,-,N/A,,Mostly Cloudy,230,2013-04-29 19:00:00
2:30 AM,77.0,73.4,89,29.77,6.2,SSW,3.5,-,N/A,,Mostly Cloudy,210,2013-04-29 19:30:00
3:00 AM,75.2,73.4,94,29.77,6.2,South,3.5,-,N/A,,Mostly Cloudy,190,2013-04-29 20:00:00
3:30 AM,75.2,73.4,94,29.77,6.2,South,3.5,-,N/A,,Mostly Cloudy,170,2013-04-29 20:30:00
4:00 AM,75.2,73.4,94,29.77,6.2,SSE,3.5,-,N/A,,Mostly Cloudy,150,2013-04-29 21:00:00
4:30 AM,75.2,73.4,94,29.77,5.0,Calm,Calm,-,N/A,,Mostly Cloudy,0,2013-04-29 21:30:00
5:00 AM,75.2,73.4,94,29.77,2.5,Calm,Calm,-,N/A,,Mostly Cloudy,0,2013-04-29 22:00:00
5:30 AM,75.2,73.4,94,29.77,0.9,Calm,Calm,-,N/A,,Mostly Cloudy,0,2013-04-29 22:30:00
6:00 AM,75.2,73.4,94,29.80,4.3,Calm,Calm,-,N/A,,Mostly Cloudy,0,2013-04-29 23:00:00
6:30 AM,75.2,73.4,94,29.80,4.3,Calm,Calm,-,N/A,,Mostly Cloudy,0,2013-04-29 23:30:00
7:00 AM,77,74,90,29.82,5,Calm,Calm,,,,Mist,,2013-04-30 00:00:00
7:00 AM,77.0,75.2,94,29.80,5.0,Calm,Calm,-,N/A,,Mostly Cloudy,0,2013-04-30 00:00:00
7:30 AM,78.8,75.2,89,29.83,4.3,SSE,2.3,-,N/A,,Mostly Cloudy,150,2013-04-30 00:30:00
8:00 AM,78.8,75.2,89,29.83,5.0,South,3.5,-,N/A,,Mostly Cloudy,180,2013-04-30 01:00:00
8:30 AM,82.4,75.2,79,29.83,5.6,South,3.5,-,N/A,,Mostly Cloudy,170,2013-04-30 01:30:00
9:00 AM,82.4,75.2,79,29.86,6.2,Calm,Calm,-,N/A,,Mostly Cloudy,0,2013-04-30 02:00:00
9:30 AM,84.2,75.2,74,29.83,6.2,Calm,Calm,-,N/A,,Mostly Cloudy,0,2013-04-30 02:30:00
10:00 AM,87.8,77.0,70,29.83,6.2,Calm,Calm,-,N/A,,Mostly Cloudy,0,2013-04-30 03:00:00
10:30 AM,87.8,75.2,66,29.86,6.2,SE,4.6,-,N/A,,Mostly Cloudy,140,2013-04-30 03:30:00
11:00 AM,91.4,75.2,59,29.86,6.2,SW,3.5,-,N/A,,Mostly Cloudy,220,2013-04-30 04:00:00
11:30 AM,91.4,73.4,55,29.83,6.2,SSW,3.5,-,N/A,,Mostly Cloudy,200,2013-04-30 04:30:00
12:00 PM,91.4,71.6,52,29.83,6.2,South,5.8,-,N/A,,Mostly Cloudy,180,2013-04-30 05:00:00
12:30 PM,93.2,73.4,52,29.80,6.2,East,4.6,-,N/A,,Mostly Cloudy,80,2013-04-30 05:30:00
1:00 PM,92,71,42,29.80,6,ESE,5.8,,,,Scattered Clouds,120,2013-04-30 06:00:00
1:00 PM,91.4,71.6,52,29.80,6.2,ESE,5.8,-,N/A,,Mostly Cloudy,120,2013-04-30 06:00:00
1:30 PM,89.6,73.4,59,29.77,6.2,NNE,5.8,-,N/A,,Mostly Cloudy,30,2013-04-30 06:30:00
2:00 PM,91.4,75.2,59,29.77,6.2,NNE,8.1,-,N/A,,Mostly Cloudy,20,2013-04-30 07:00:00
2:30 PM,91.4,71.6,52,29.74,6.2,NNE,5.8,-,N/A,,Mostly Cloudy,30,2013-04-30 07:30:00
3:00 PM,87.8,73.4,62,29.74,6.2,West,4.6,-,N/A,,Mostly Cloudy,260,2013-04-30 08:00:00
3:30 PM,86.0,75.2,70,29.74,6.2,SW,6.9,-,N/A,,Mostly Cloudy,230,2013-04-30 08:30:00
4:00 PM,86.0,75.2,70,29.74,6.2,WSW,8.1,-,N/A,,Mostly Cloudy,240,2013-04-30 09:00:00
4:30 PM,77.0,73.4,89,29.77,1.2,East,11.5,-,N/A,Rain,Rain,100,2013-04-30 09:30:00
5:00 PM,77.0,75.2,94,29.77,1.9,SE,6.9,-,N/A,Rain,Rain,130,2013-04-30 10:00:00
5:30 PM,77.0,75.2,94,29.77,5.0,SE,4.6,-,N/A,Rain,Light Rain,140,2013-04-30 10:30:00
6:00 PM,77.0,75.2,94,29.77,6.2,Calm,Calm,-,N/A,,Mostly Cloudy,0,2013-04-30 11:00:00
6:30 PM,78.8,75.2,89,29.80,5.0,East,3.5,-,N/A,,Mostly Cloudy,90,2013-04-30 11:30:00
7:00 PM,78,75,89,29.80,5,West,4.6,,,,Mist,260,2013-04-30 12:00:00
7:00 PM,78.8,75.2,89,29.80,5.0,West,4.6,-,N/A,,Mostly Cloudy,260,2013-04-30 12:00:00
7:30 PM,77.0,75.2,94,29.80,5.0,SSE,4.6,-,N/A,,Mostly Cloudy,160,2013-04-30 12:30:00
8:00 PM,77.0,75.2,94,29.80,5.0,SSE,3.5,-,N/A,,Mostly Cloudy,150,2013-04-30 13:00:00
8:30 PM,77.0,75.2,94,29.83,5.0,Calm,Calm,-,N/A,,Mostly Cloudy,0,2013-04-30 13:30:00
9:00 PM,77.0,75.2,94,29.83,5.0,Calm,Calm,-,N/A,,Mostly Cloudy,0,2013-04-30 14:00:00
9:30 PM,77.0,75.2,94,29.83,5.0,Calm,Calm,-,N/A,,Mostly Cloudy,0,2013-04-30 14:30:00
10:00 PM,77.0,75.2,94,29.86,5.0,SSE,2.3,-,N/A,,Mostly Cloudy,160,2013-04-30 15:00:00
10:30 PM,77.0,75.2,94,29.86,5.0,Calm,Calm,-,N/A,,Mostly Cloudy,0,2013-04-30 15:30:00
11:00 PM,77.0,75.2,94,29.86,5.0,Calm,Calm,-,N/A,,Mostly Cloudy,0,2013-04-30 16:00:00
11:30 PM,77.0,73.4,89,29.86,5.0,SSE,3.5,-,N/A,,Mostly Cloudy,150,2013-04-30 16:30:00